Time,TemperatureF,DewpointF,PressureIn,WindDirection,WindDirectionDegrees,WindSpeedMPH,WindSpeedGustMPH,Humidity,HourlyPrecipIn,Conditions,Clouds,dailyrainin,SoftwareType,DateUTC
2013-03-30 00:02:00,51.0,44.0,30.23,ENE,72,1.0,3.0,78,0.00,,,0.01,,2013-03-30 07:02:00,
2013-03-30 00:11:00,51.0,44.0,30.23,ENE,72,1.0,3.0,78,0.00,,,0.01,,2013-03-30 07:11:00,
2013-03-30 00:22:00,51.0,45.0,30.23,ENE,69,0.0,1.0,79,0.00,,,0.01,,2013-03-30 07:22:00,
2013-03-30 00:32:00,50.0,44.0,30.23,ENE,69,0.0,1.0,80,0.00,,,0.01,,2013-03-30 07:32:00,
2013-03-30 00:42:00,50.0,44.0,30.23,ENE,69,0.0,1.0,80,0.00,,,0.01,,2013-03-30 07:42:00,
2013-03-30 00:52:00,50.0,44.0,30.23,ENE,69,0.0,1.0,81,0.00,,,0.01,,2013-03-30 07:52:00,
2013-03-30 01:01:00,49.0,44.0,30.23,ENE,69,0.0,1.0,82,0.00,,,0.01,,2013-03-30 08:01:00,
2013-03-30 01:11:00,49.0,44.0,30.23,ENE,69,0.0,1.0,82,0.00,,,0.01,,2013-03-30 08:11:00,
2013-03-30 01:21:00,49.0,44.0,30.24,ENE,69,0.0,2.0,83,0.00,,,0.01,,2013-03-30 08:21:00,
2013-03-30 01:31:00,49.0,44.0,30.24,ENE,74,0.0,2.0,84,0.00,,,0.01,,2013-03-30 08:31:00,
2013-03-30 01:42:00,49.0,44.0,30.24,ENE,74,0.0,2.0,84,0.00,,,0.01,,2013-03-30 08:42:00,
2013-03-30 01:53:00,48.0,44.0,30.24,ENE,75,0.0,2.0,85,0.00,,,0.01,,2013-03-30 08:53:00,
2013-03-30 02:01:00,48.0,45.0,30.24,ENE,75,0.0,2.0,89,0.00,,,0.01,,2013-03-30 09:01:00,
2013-03-30 02:11:00,48.0,45.0,30.24,ENE,75,0.0,2.0,89,0.00,,,0.01,,2013-03-30 09:11:00,
2013-03-30 02:22:00,47.0,43.0,30.24,ENE,75,0.0,1.0,87,0.00,,,0.01,,2013-03-30 09:22:00,
2013-03-30 02:33:00,47.0,43.0,30.24,ENE,75,0.0,0.0,87,0.00,,,0.01,,2013-03-30 09:33:00,
2013-03-30 02:42:00,47.0,43.0,30.24,ENE,75,0.0,0.0,87,0.00,,,0.01,,2013-03-30 09:42:00,
2013-03-30 02:53:00,46.0,44.0,30.24,ENE,75,1.0,2.0,92,0.00,,,0.01,,2013-03-30 09:53:00,
2013-03-30 03:02:00,46.0,43.0,30.24,ENE,61,0.0,4.0,90,0.00,,,0.01,,2013-03-30 10:02:00,
2013-03-30 03:12:00,46.0,43.0,30.24,ENE,61,0.0,4.0,90,0.00,,,0.01,,2013-03-30 10:12:00,
2013-03-30 03:22:00,46.0,43.0,30.24,East,95,1.0,2.0,90,0.00,,,0.01,,2013-03-30 10:22:00,
2013-03-30 03:32:00,46.0,43.0,30.24,ESE,120,2.0,6.0,90,0.00,,,0.01,,2013-03-30 10:32:00,
2013-03-30 03:42:00,46.0,43.0,30.24,ESE,120,2.0,6.0,90,0.00,,,0.01,,2013-03-30 10:42:00,
2013-03-30 03:52:00,45.0,43.0,30.24,ESE,120,0.0,2.0,91,0.00,,,0.01,,2013-03-30 10:52:00,
2013-03-30 04:02:00,45.0,43.0,30.24,ESE,121,0.0,3.0,91,0.00,,,0.01,,2013-03-30 11:02:00,
2013-03-30 04:12:00,45.0,43.0,30.24,ESE,121,0.0,3.0,91,0.00,,,0.01,,2013-03-30 11:12:00,
2013-03-30 04:22:00,44.0,42.0,30.24,ESE,104,0.0,4.0,92,0.00,,,0.01,,2013-03-30 11:22:00,
2013-03-30 04:32:00,44.0,42.0,30.24,ESE,119,0.0,5.0,92,0.00,,,0.01,,2013-03-30 11:32:00,
2013-03-30 04:42:00,44.0,42.0,30.24,ESE,119,0.0,5.0,92,0.00,,,0.01,,2013-03-30 11:42:00,
2013-03-30 04:52:00,44.0,42.0,30.23,ESE,108,0.0,3.0,92,0.00,,,0.01,,2013-03-30 11:52:00,
2013-03-30 05:02:00,44.0,42.0,30.23,ESE,110,0.0,2.0,92,0.00,,,0.01,,2013-03-30 12:02:00,
2013-03-30 05:12:00,44.0,42.0,30.23,ESE,110,0.0,2.0,92,0.00,,,0.01,,2013-03-30 12:12:00,
2013-03-30 05:22:00,44.0,42.0,30.23,ESE,110,0.0,2.0,92,0.00,,,0.01,,2013-03-30 12:22:00,
2013-03-30 05:32:00,43.0,41.0,30.23,ESE,110,0.0,1.0,92,0.00,,,0.01,,2013-03-30 12:32:00,
2013-03-30 05:42:00,43.0,41.0,30.23,ESE,110,0.0,1.0,92,0.00,,,0.01,,2013-03-30 12:42:00,
2013-03-30 05:53:00,43.0,41.0,30.23,ESE,110,0.0,1.0,92,0.00,,,0.01,,2013-03-30 12:53:00,
2013-03-30 06:02:00,43.0,41.0,30.23,ESE,110,0.0,1.0,92,0.00,,,0.01,,2013-03-30 13:02:00,
2013-03-30 06:11:00,43.0,41.0,30.23,ESE,110,0.0,1.0,92,0.00,,,0.01,,2013-03-30 13:11:00,
2013-03-30 06:22:00,42.0,40.0,30.23,ESE,110,0.0,2.0,93,0.00,,,0.01,,2013-03-30 13:22:00,
2013-03-30 06:31:00,42.0,40.0,30.24,ENE,70,1.0,3.0,93,0.00,,,0.01,,2013-03-30 13:31:00,
2013-03-30 06:42:00,42.0,40.0,30.24,ENE,70,1.0,3.0,93,0.00,,,0.01,,2013-03-30 13:42:00,
2013-03-30 06:52:00,42.0,40.0,30.24,ENE,70,0.0,3.0,94,0.00,,,0.01,,2013-03-30 13:52:00,
2013-03-30 07:02:00,42.0,40.0,30.23,ENE,70,0.0,2.0,94,0.00,,,0.01,,2013-03-30 14:02:00,
2013-03-30 07:11:00,42.0,40.0,30.23,ENE,70,0.0,2.0,94,0.00,,,0.01,,2013-03-30 14:11:00,
2013-03-30 07:22:00,42.0,40.0,30.24,East,100,1.0,5.0,94,0.00,,,0.01,,2013-03-30 14:22:00,
2013-03-30 07:32:00,42.0,40.0,30.24,East,85,0.0,3.0,94,0.00,,,0.01,,2013-03-30 14:32:00,
2013-03-30 07:42:00,42.0,40.0,30.24,East,85,0.0,3.0,94,0.00,,,0.01,,2013-03-30 14:42:00,
2013-03-30 07:52:00,42.0,40.0,30.24,East,80,2.0,4.0,94,0.00,,,0.01,,2013-03-30 14:52:00,
2013-03-30 08:02:00,42.0,40.0,30.24,East,80,0.0,3.0,94,0.00,,,0.01,,2013-03-30 15:02:00,
2013-03-30 08:12:00,42.0,40.0,30.24,East,80,0.0,3.0,94,0.00,,,0.01,,2013-03-30 15:12:00,
2013-03-30 08:22:00,43.0,41.0,30.24,SE,128,2.0,5.0,94,0.00,,,0.01,,2013-03-30 15:22:00,
2013-03-30 08:33:00,44.0,42.0,30.24,ESE,120,3.0,4.0,93,0.00,,,0.01,,2013-03-30 15:33:00,
2013-03-30 08:42:00,44.0,42.0,30.24,ESE,120,3.0,4.0,93,0.00,,,0.01,,2013-03-30 15:42:00,
2013-03-30 08:52:00,45.0,43.0,30.24,East,84,1.0,4.0,91,0.00,,,0.01,,2013-03-30 15:52:00,
2013-03-30 09:02:00,46.0,42.0,30.24,ESE,121,3.0,7.0,87,0.00,,,0.00,,2013-03-30 16:02:00,
2013-03-30 09:12:00,47.0,43.0,30.24,ENE,66,1.0,6.0,86,0.00,,,0.00,,2013-03-30 16:12:00,
2013-03-30 09:22:00,47.0,43.0,30.24,ENE,66,1.0,6.0,86,0.00,,,0.00,,2013-03-30 16:22:00,
2013-03-30 09:32:00,48.0,43.0,30.23,ENE,71,3.0,6.0,83,0.00,,,0.00,,2013-03-30 16:32:00,
2013-03-30 09:42:00,48.0,43.0,30.23,ENE,71,3.0,6.0,83,0.00,,,0.00,,2013-03-30 16:42:00,
2013-03-30 09:52:00,49.0,44.0,30.23,ENE,67,1.0,4.0,82,0.00,,,0.00,,2013-03-30 16:52:00,
2013-03-30 10:02:00,51.0,44.0,30.23,ENE,59,2.0,5.0,78,0.00,,,0.00,,2013-03-30 17:02:00,
2013-03-30 10:12:00,51.0,44.0,30.23,ENE,59,2.0,5.0,78,0.00,,,0.00,,2013-03-30 17:12:00,
2013-03-30 10:22:00,52.0,44.0,30.23,ENE,59,1.0,3.0,75,0.00,,,0.00,,2013-03-30 17:22:00,
2013-03-30 10:32:00,53.0,44.0,30.23,ESE,111,2.0,4.0,72,0.00,,,0.00,,2013-03-30 17:32:00,
2013-03-30 10:42:00,53.0,44.0,30.23,ESE,111,2.0,4.0,72,0.00,,,0.00,,2013-03-30 17:42:00,
2013-03-30 10:52:00,55.0,45.0,30.22,WNW,284,2.0,5.0,69,0.00,,,0.00,,2013-03-30 17:52:00,
2013-03-30 11:02:00,55.0,43.0,30.22,North,5,2.0,7.0,65,0.00,,,0.00,,2013-03-30 18:02:00,
2013-03-30 11:12:00,56.0,44.0,30.22,North,9,1.0,6.0,64,0.00,,,0.00,,2013-03-30 18:12:00,
2013-03-30 11:21:00,56.0,44.0,30.22,North,9,1.0,6.0,64,0.00,,,0.00,,2013-03-30 18:21:00,
2013-03-30 11:32:00,57.0,45.0,30.22,ENE,68,2.0,6.0,63,0.00,,,0.00,,2013-03-30 18:32:00,
2013-03-30 11:42:00,57.0,45.0,30.22,ENE,68,2.0,6.0,63,0.00,,,0.00,,2013-03-30 18:42:00,
2013-03-30 11:53:00,58.0,44.0,30.22,NNE,22,1.0,7.0,60,0.00,,,0.00,,2013-03-30 18:53:00,
2013-03-30 12:02:00,59.0,45.0,30.22,NNW,342,0.0,4.0,59,0.00,,,0.00,,2013-03-30 19:02:00,
2013-03-30 12:11:00,59.0,45.0,30.22,NNW,342,0.0,4.0,59,0.00,,,0.00,,2013-03-30 19:11:00,
2013-03-30 12:21:00,60.0,44.0,30.21,ENE,62,4.0,7.0,56,0.00,,,0.00,,2013-03-30 19:21:00,
2013-03-30 12:31:00,61.0,45.0,30.21,NE,53,4.0,7.0,56,0.00,,,0.00,,2013-03-30 19:31:00,
2013-03-30 12:42:00,61.0,45.0,30.21,NE,53,4.0,7.0,56,0.00,,,0.00,,2013-03-30 19:42:00,
2013-03-30 12:53:00,62.0,45.0,30.20,NE,40,2.0,6.0,54,0.00,,,0.00,,2013-03-30 19:53:00,
2013-03-30 13:02:00,62.0,45.0,30.19,NNE,30,0.0,10.0,53,0.00,,,0.00,,2013-03-30 20:02:00,
2013-03-30 13:12:00,62.0,45.0,30.19,NNE,30,0.0,10.0,53,0.00,,,0.00,,2013-03-30 20:12:00,
2013-03-30 13:21:00,63.0,45.0,30.19,East,86,2.0,7.0,51,0.00,,,0.00,,2013-03-30 20:21:00,
2013-03-30 13:32:00,65.0,46.0,30.19,ENE,63,2.0,6.0,51,0.00,,,0.00,,2013-03-30 20:32:00,
2013-03-30 13:42:00,65.0,46.0,30.19,ENE,63,2.0,6.0,51,0.00,,,0.00,,2013-03-30 20:42:00,
2013-03-30 13:53:00,65.0,45.0,30.18,North,11,3.0,10.0,49,0.00,,,0.00,,2013-03-30 20:53:00,
2013-03-30 14:01:00,66.0,45.0,30.18,NNE,23,2.0,6.0,47,0.00,,,0.00,,2013-03-30 21:01:00,
2013-03-30 14:12:00,66.0,45.0,30.18,NNE,23,2.0,6.0,47,0.00,,,0.00,,2013-03-30 21:12:00,
2013-03-30 14:22:00,66.0,45.0,30.17,NNE,14,2.0,10.0,46,0.00,,,0.00,,2013-03-30 21:22:00,
2013-03-30 14:32:00,67.0,45.0,30.17,NNW,348,1.0,6.0,45,0.00,,,0.00,,2013-03-30 21:32:00,
2013-03-30 14:43:00,67.0,45.0,30.17,NNW,348,1.0,6.0,45,0.00,,,0.00,,2013-03-30 21:43:00,
2013-03-30 14:53:00,67.0,46.0,30.16,North,355,1.0,6.0,47,0.00,,,0.00,,2013-03-30 21:53:00,
2013-03-30 15:02:00,67.0,46.0,30.16,NNW,327,2.0,12.0,46,0.00,,,0.00,,2013-03-30 22:02:00,
2013-03-30 15:12:00,67.0,46.0,30.16,NNW,327,2.0,12.0,46,0.00,,,0.00,,2013-03-30 22:12:00,
2013-03-30 15:23:00,68.0,46.0,30.15,NNE,15,2.0,7.0,45,0.00,,,0.00,,2013-03-30 22:23:00,
2013-03-30 15:32:00,67.0,46.0,30.14,NNW,348,2.0,10.0,47,0.00,,,0.00,,2013-03-30 22:32:00,
2013-03-30 15:42:00,67.0,46.0,30.14,NNW,348,2.0,10.0,47,0.00,,,0.00,,2013-03-30 22:42:00,
2013-03-30 15:53:00,68.0,47.0,30.14,NW,321,5.0,10.0,47,0.00,,,0.00,,2013-03-30 22:53:00,
2013-03-30 16:02:00,68.0,46.0,30.13,North,355,1.0,7.0,46,0.00,,,0.00,,2013-03-30 23:02:00,
2013-03-30 16:12:00,68.0,46.0,30.13,North,355,1.0,7.0,46,0.00,,,0.00,,2013-03-30 23:12:00,
2013-03-30 16:22:00,68.0,46.0,30.13,NW,321,4.0,7.0,46,0.00,,,0.00,,2013-03-30 23:22:00,
2013-03-30 16:32:00,67.0,46.0,30.12,NW,311,4.0,9.0,47,0.00,,,0.00,,2013-03-30 23:32:00,
2013-03-30 16:42:00,67.0,46.0,30.12,NW,311,4.0,9.0,47,0.00,,,0.00,,2013-03-30 23:42:00,
2013-03-30 16:53:00,67.0,46.0,30.12,NNE,22,4.0,12.0,47,0.00,,,0.00,,2013-03-30 23:53:00,
2013-03-30 17:02:00,67.0,46.0,30.11,WNW,297,5.0,9.0,47,0.00,,,0.00,,2013-03-31 00:02:00,
2013-03-30 17:11:00,67.0,46.0,30.11,WNW,297,5.0,9.0,47,0.00,,,0.00,,2013-03-31 00:11:00,
2013-03-30 17:22:00,66.0,46.0,30.11,North,355,3.0,10.0,48,0.00,,,0.00,,2013-03-31 00:22:00,
2013-03-30 17:32:00,66.0,46.0,30.11,NW,306,4.0,10.0,49,0.00,,,0.00,,2013-03-31 00:32:00,
2013-03-30 17:42:00,66.0,46.0,30.11,NW,306,4.0,10.0,49,0.00,,,0.00,,2013-03-31 00:42:00,
2013-03-30 17:52:00,65.0,46.0,30.10,NNW,339,3.0,10.0,50,0.00,,,0.00,,2013-03-31 00:52:00,
2013-03-30 18:01:00,65.0,46.0,30.10,NNE,14,3.0,9.0,51,0.00,,,0.00,,2013-03-31 01:01:00,
2013-03-30 18:22:00,65.0,47.0,30.09,NNW,336,2.0,5.0,52,0.00,,,0.00,,2013-03-31 01:22:00,
2013-03-30 18:32:00,64.0,47.0,30.09,NW,323,2.0,9.0,53,0.00,,,0.00,,2013-03-31 01:32:00,
2013-03-30 18:42:00,64.0,47.0,30.09,NW,323,2.0,9.0,53,0.00,,,0.00,,2013-03-31 01:42:00,
2013-03-30 18:52:00,63.0,47.0,30.09,NW,311,0.0,7.0,56,0.00,,,0.00,,2013-03-31 01:52:00,
2013-03-30 19:02:00,63.0,48.0,30.09,North,355,3.0,5.0,57,0.00,,,0.00,,2013-03-31 02:02:00,
2013-03-30 19:12:00,63.0,48.0,30.09,North,355,3.0,5.0,57,0.00,,,0.00,,2013-03-31 02:12:00,
2013-03-30 19:21:00,61.0,47.0,30.08,North,350,0.0,5.0,60,0.00,,,0.00,,2013-03-31 02:21:00,
2013-03-30 19:31:00,60.0,47.0,30.08,North,350,0.0,7.0,62,0.00,,,0.00,,2013-03-31 02:31:00,
2013-03-30 19:42:00,60.0,47.0,30.08,North,350,0.0,7.0,62,0.00,,,0.00,,2013-03-31 02:42:00,
2013-03-30 19:52:00,59.0,47.0,30.08,NW,319,0.0,4.0,65,0.00,,,0.00,,2013-03-31 02:52:00,
2013-03-30 20:01:00,58.0,47.0,30.08,NNW,336,1.0,6.0,67,0.00,,,0.00,,2013-03-31 03:01:00,
2013-03-30 20:11:00,58.0,47.0,30.08,NNW,336,1.0,6.0,67,0.00,,,0.00,,2013-03-31 03:11:00,
2013-03-30 20:21:00,57.0,47.0,30.08,North,350,1.0,3.0,69,0.00,,,0.00,,2013-03-31 03:21:00,
2013-03-30 20:32:00,56.0,46.0,30.09,North,350,0.0,2.0,70,0.00,,,0.00,,2013-03-31 03:32:00,
2013-03-30 20:43:00,56.0,46.0,30.09,North,350,0.0,2.0,70,0.00,,,0.00,,2013-03-31 03:43:00,
2013-03-30 20:53:00,55.0,46.0,30.09,North,350,0.0,2.0,72,0.00,,,0.00,,2013-03-31 03:53:00,
2013-03-30 21:02:00,55.0,-99.9,30.09,North,350,0.0,1.0,74,0.00,,,0.00,,2013-03-31 04:02:00,
2013-03-30 21:12:00,55.0,47.0,30.09,North,350,0.0,1.0,74,0.00,,,0.00,,2013-03-31 04:12:00,
2013-03-30 21:22:00,54.0,46.0,30.09,North,350,0.0,0.0,75,0.00,,,0.00,,2013-03-31 04:22:00,
2013-03-30 21:32:00,54.0,46.0,30.09,NNE,15,0.0,2.0,74,0.00,,,0.00,,2013-03-31 04:32:00,
2013-03-30 21:42:00,54.0,46.0,30.09,NNE,15,0.0,2.0,74,0.00,,,0.00,,2013-03-31 04:42:00,
2013-03-30 21:52:00,55.0,47.0,30.09,ENE,61,0.0,4.0,73,0.00,,,0.00,,2013-03-31 04:52:00,
2013-03-30 22:02:00,54.0,46.0,30.09,ENE,61,0.0,4.0,73,0.00,,,0.00,,2013-03-31 05:02:00,
2013-03-30 22:22:00,54.0,46.0,30.09,NNE,30,0.0,5.0,73,0.00,,,0.00,,2013-03-31 05:22:00,
2013-03-30 22:32:00,54.0,45.0,30.09,NE,52,1.0,6.0,72,0.00,,,0.00,,2013-03-31 05:32:00,
2013-03-30 22:42:00,54.0,45.0,30.09,NE,52,1.0,6.0,72,0.00,,,0.00,,2013-03-31 05:42:00,
2013-03-30 22:53:00,54.0,45.0,30.08,ENE,67,1.0,4.0,72,0.00,,,0.00,,2013-03-31 05:53:00,
2013-03-30 23:01:00,53.0,44.0,30.08,ENE,57,0.0,5.0,72,0.00,,,0.00,,2013-03-31 06:01:00,
2013-03-30 23:11:00,53.0,44.0,30.08,ENE,57,0.0,5.0,72,0.00,,,0.00,,2013-03-31 06:11:00,
2013-03-30 23:22:00,53.0,45.0,30.07,ENE,61,0.0,2.0,73,0.00,,,0.00,,2013-03-31 06:22:00,
2013-03-30 23:32:00,53.0,45.0,30.07,ENE,69,0.0,3.0,74,0.00,,,0.00,,2013-03-31 06:32:00,
2013-03-30 23:42:00,53.0,45.0,30.07,ENE,69,0.0,3.0,74,0.00,,,0.00,,2013-03-31 06:42:00,
2013-03-30 23:52:00,53.0,46.0,30.07,SE,125,1.0,4.0,76,0.00,,,0.00,,2013-03-31 06:52:00,